2015 AQ45

Initial reported observation by Pan-STARRS 1, Haleakala on 2015-01-14.
(Discoverer will be defined when the object is numbered. See this note on how discoverers are determined.)

Orbit

Orbit type: Amor
Near-Earth Object

Note: WebGL enabled browser required.

epoch2023-09-13.0
epoch JD2460200.5
perihelion date2023-04-24.40427
perihelion JD2460058.90427
argument of perihelion (°)293.13222
ascending node (°)281.60889
inclination (°)4.28305
eccentricity0.3215825
perihelion distance (AU)1.0713554
Tisserand w.r.t. Jupiter4.3
ΔV w.r.t. Earth (km/sec)5.3
semimajor axis (AU)1.5791977
mean anomaly (°)70.32330
mean daily motion (°/day)0.49664840
aphelion distance (AU)2.087
period (years)1.98
P-vector [x]-0.81921973
P-vector [y]-0.49505160
P-vector [z]-0.28948740
Q-vector [x]0.56879454
Q-vector [y]-0.76580076
Q-vector [z]-0.30003660
absolute magnitude21.45
phase slope0.15
uncertainty0
referenceMPO 781926
observations used253
oppositions5
arc length (days)3028
first opposition used2015
last opposition used2023
residual rms (arc-secs)0.72
perturbers coarse indicatorM-v
perturbers precise indicator003Ek
first observation date used2015-01-14.0
last observation date used2023-04-29.0
computer nameVeres
JD of orbit computation2458637.996420
perihelion JD uncertainty (days)7.1515E-06
argument of perihelion uncertainty (°)2.3881E-05
ascending node uncertainty (°)1.7419E-05
inclination uncertainty (°)2.0581E-06
eccentricity uncertainty 7.1727E-08
perihelion distance uncertainty (AU)1.1246E-07
Minimum Orbit Intersection Distances (in AU)
for orbit epoch: 2460200.5, reference: E2023-T29
Mercury0.62598
Venus0.36038
Earth0.0924
Mars0.04503
Jupiter2.89066
Saturn7.1015
Uranus17.1473
Neptune27.7636

Observations

261 total observations over interval: 2015 01 14.37142 – 2023 04 29.938008
These data are available for download (format description).

Date (UT) J2000 RA J2000 Dec Magn Location Ref
2015 01 14.37142 08 08 43.002 +17 00 49.56 21.2 w F51 – Pan-STARRS 1, Haleakala MPS 562933
2015 01 14.38378 08 08 41.711 +17 00 47.21 21.1 w F51 – Pan-STARRS 1, Haleakala MPS 562933
2015 01 14.39601 08 08 40.417 +17 00 44.86 21.1 w F51 – Pan-STARRS 1, Haleakala MPS 562933
2015 01 14.40823 08 08 39.133 +17 00 42.72 21.2 w F51 – Pan-STARRS 1, Haleakala MPS 562933
2015 01 15.274586 08 07 12.06 +16 57 44.2 21.2 V H21 – Astronomical Research Observatory, Westfield MPS 562933
2015 01 15.284700 08 07 10.98 +16 57 42.3 21.7 V H21 – Astronomical Research Observatory, Westfield MPS 562933
2015 01 15.295030 08 07 09.87 +16 57 40.3 21.3 V H21 – Astronomical Research Observatory, Westfield MPS 562933
2015 01 15.42945 08 06 55.76 +16 57 14.2   291 – LPL/Spacewatch II MPS 562933
2015 01 15.43368 08 06 55.35 +16 57 13.4   291 – LPL/Spacewatch II MPS 562933
2015 01 16.44470 08 05 11.09 +16 53 50.8   291 – LPL/Spacewatch II MPS 562933
2015 01 16.44731 08 05 10.84 +16 53 50.1 21.2 R 291 – LPL/Spacewatch II MPS 562933
2015 01 16.44995 08 05 10.53 +16 53 49.6 21.0 R 291 – LPL/Spacewatch II MPS 562933
2015 01 16.53888 08 05 01.386 +16 53 35.43 21.5 w F51 – Pan-STARRS 1, Haleakala MPS 562933
2015 01 16.55114 08 05 00.034 +16 53 32.79 21.4 w F51 – Pan-STARRS 1, Haleakala MPS 562933
2015 01 16.56344 08 04 58.679 +16 53 30.03 21.2 w F51 – Pan-STARRS 1, Haleakala MPS 562933
2015 01 17.91272 08 02 36.36 +16 48 49.8 20.6 V 033 – Karl Schwarzschild Observatory, Tautenburg MPS 562933
2015 01 17.92181 08 02 35.33 +16 48 48.1 20.5 V 033 – Karl Schwarzschild Observatory, Tautenburg MPS 562933
2015 01 18.157700 08 02 10.39 +16 48 03.3 20.7 R H01 – Magdalena Ridge Observatory, Socorro MPS 562933
2015 01 18.160961 08 02 10.02 +16 48 02.8 20.5 R H01 – Magdalena Ridge Observatory, Socorro MPS 562933
2015 01 18.169859 08 02 09.02 +16 48 01.1 20.7 R H01 – Magdalena Ridge Observatory, Socorro MPS 562933
2015 01 18.179776 08 02 07.91 +16 47 59.4 21.1 R H01 – Magdalena Ridge Observatory, Socorro MPS 562933
2015 02 06.271093 07 25 13.77 +15 35 52.9 20.9 R 705 – Apache Point MPS 609932
2015 02 06.272389 07 25 13.62 +15 35 52.5 20.8 R 705 – Apache Point MPS 609932
2015 02 06.273690 07 25 13.47 +15 35 52.2 21.1 R 705 – Apache Point MPS 609932
2015 02 07.12773 07 23 42.57 +15 32 16.6 20.1 R 291 – LPL/Spacewatch II MPS 571115
2015 02 07.13017 07 23 42.25 +15 32 15.7 20.7 R 291 – LPL/Spacewatch II MPS 571115
2015 02 07.13261 07 23 41.99 +15 32 15.2 20.5 R 291 – LPL/Spacewatch II MPS 571115
2015 02 12.937525 07 14 08.958 +15 07 30.39 21.0 R J04 – ESA Optical Ground Station, Tenerife MPS 571115
2015 02 12.944133 07 14 08.339 +15 07 28.14 21.0 R J04 – ESA Optical Ground Station, Tenerife MPS 571115
2015 02 19.23498 07 06 01.553 +14 40 23.14 21.4 w F51 – Pan-STARRS 1, Haleakala MPS 580442
2015 02 19.24702 07 06 00.691 +14 40 20.23 21.2 w F51 – Pan-STARRS 1, Haleakala MPS 580442
2015 02 19.25908 07 05 59.803 +14 40 17.29 21.2 w F51 – Pan-STARRS 1, Haleakala MPS 580442
2015 02 19.27112 07 05 58.932 +14 40 14.28 21.2 w F51 – Pan-STARRS 1, Haleakala MPS 580442
2015 04 10.14646 07 38 48.28 +10 42 02.9 20.9 R 291 – LPL/Spacewatch II MPS 597707
2015 04 10.15298 07 38 49.06 +10 42 00.5 20.7 R 291 – LPL/Spacewatch II MPS 597707
2015 06 12.259900 11 18 35.718 -04 16 16.85 21.5 R 568 – Maunakea MPS 614204
2015 06 12.261753 11 18 36.230 -04 16 19.18 21.5 R 568 – Maunakea MPS 614204
2015 06 12.263666 11 18 36.758 -04 16 21.58 21.6 R 568 – Maunakea MPS 614204
2015 06 15.20746 11 32 40.17 -05 18 34.5 20.8 R 291 – LPL/Spacewatch II MPS 611589
2015 06 15.21144 11 32 41.29 -05 18 39.1 20.9 R 291 – LPL/Spacewatch II MPS 611589
2015 06 15.21543 11 32 42.41 -05 18 44.9 20.9 R 291 – LPL/Spacewatch II MPS 611589
2017 01 01.301955 09 00 16.41 +14 50 51.3 22.1 V H21 – Astronomical Research Observatory, Westfield MPEC A07
2017 01 01.316792 09 00 15.88 +14 50 46.0 22.3 V H21 – Astronomical Research Observatory, Westfield MPEC A07
2017 01 01.337926 09 00 15.15 +14 50 38.1 22.2 V H21 – Astronomical Research Observatory, Westfield MPEC A07
2017 01 30.42579 08 26 09.13 +12 10 49.3   I52 – Steward Observatory, Mt. Lemmon Station MPS 762297
2017 01 30.42947 08 26 08.71 +12 10 47.9 21.3 V I52 – Steward Observatory, Mt. Lemmon Station MPS 762297
2017 01 30.43314 08 26 08.25 +12 10 46.9 20.8 V I52 – Steward Observatory, Mt. Lemmon Station MPS 762297
2017 01 30.43766 08 26 07.75 +12 10 45.9 21.1 V I52 – Steward Observatory, Mt. Lemmon Station MPS 762297
2017 06 21.18477 12 46 32.59 -12 54 58.8   I52 – Steward Observatory, Mt. Lemmon Station MPS 801599
2017 06 21.18684 12 46 33.26 -12 55 00.6   I52 – Steward Observatory, Mt. Lemmon Station MPS 801599
2017 06 21.18891 12 46 33.91 -12 55 02.9 20.6 V I52 – Steward Observatory, Mt. Lemmon Station MPS 801599
2017 06 21.19098 12 46 34.57 -12 55 05.5   I52 – Steward Observatory, Mt. Lemmon Station MPS 801599
2019 01 03.57981 09 33 56.552 +11 27 16.14 22.2 w F51 – Pan-STARRS 1, Haleakala MPS 952714
2019 01 03.59158 09 33 56.599 +11 27 09.24 22.3 w F51 – Pan-STARRS 1, Haleakala MPS 952714
2019 01 03.60331 09 33 56.690 +11 27 02.78 22.3 w F51 – Pan-STARRS 1, Haleakala MPS 952714
2019 01 03.61505 09 33 56.759 +11 26 55.86 22.2 w F51 – Pan-STARRS 1, Haleakala MPS 952714
2019 01 10.44704 09 34 06.977 +10 21 44.46 22.0 w F51 – Pan-STARRS 1, Haleakala MPS 1348811
2019 01 10.45889 09 34 06.802 +10 21 37.97 22.2 w F51 – Pan-STARRS 1, Haleakala MPS 1348811
2019 01 10.48253 09 34 06.436 +10 21 24.38 22.0 w F51 – Pan-STARRS 1, Haleakala MPS 1348811
2019 01 16.54662 09 32 14.105 +09 23 37.26 21.9 w F51 – Pan-STARRS 1, Haleakala MPS 1348811
2019 01 16.55878 09 32 13.663 +09 23 30.30 21.7 w F51 – Pan-STARRS 1, Haleakala MPS 1348811
2019 01 16.58306 09 32 12.814 +09 23 16.27 21.7 w F51 – Pan-STARRS 1, Haleakala MPS 1348811
2019 01 25.32303 09 25 59.55 +08 00 08.2 20.5 G I52 – Steward Observatory, Mt. Lemmon Station MPS 952714
2019 01 25.35982 09 25 57.13 +07 59 47.8 20.8 G I52 – Steward Observatory, Mt. Lemmon Station MPS 952714
2019 01 25.36843 09 25 56.59 +07 59 42.4 20.6 G I52 – Steward Observatory, Mt. Lemmon Station MPS 952714
2019 01 27.34654 09 23 56.00 +07 40 59.6 20.9 G G96 – Mt. Lemmon Survey MPS 952714
2019 01 27.35170 09 23 55.62 +07 40 56.2 21.4 G G96 – Mt. Lemmon Survey MPS 952714
2019 01 27.35686 09 23 55.23 +07 40 53.5 20.7 G G96 – Mt. Lemmon Survey MPS 952714
2019 02 08.234770 09 07 39.11 +05 50 21.9 19.97 r I41 – Palomar Mountain--ZTF MPS 969849
2019 02 08.246590 09 07 37.85 +05 50 15.7 19.99 r I41 – Palomar Mountain--ZTF MPS 969849
2019 02 08.249550 09 07 37.55 +05 50 14.1 20.13 r I41 – Palomar Mountain--ZTF MPS 969849
2019 02 08.258431 09 07 36.61 +05 50 09.2 20.02 r I41 – Palomar Mountain--ZTF MPS 969849
2019 02 08.261390 09 07 36.29 +05 50 07.6 20.01 r I41 – Palomar Mountain--ZTF MPS 969849
2019 02 08.264340 09 07 35.97 +05 50 05.9 20.12 r I41 – Palomar Mountain--ZTF MPS 969849
2019 02 08.273240 09 07 35.03 +05 50 01.1 20.07 r I41 – Palomar Mountain--ZTF MPS 969849
2019 02 08.285150 09 07 33.76 +05 49 54.7 20.12 r I41 – Palomar Mountain--ZTF MPS 969849
2019 02 08.288140 09 07 33.46 +05 49 53.0 20.11 r I41 – Palomar Mountain--ZTF MPS 969849
2019 02 08.291120 09 07 33.13 +05 49 51.3 20.10 r I41 – Palomar Mountain--ZTF MPS 969849
2019 02 08.300150 09 07 32.17 +05 49 46.5 20.09 r I41 – Palomar Mountain--ZTF MPS 969849
2019 02 08.306220 09 07 31.52 +05 49 43.2 20.08 r I41 – Palomar Mountain--ZTF MPS 969849
2019 02 08.312310 09 07 30.86 +05 49 40.0 19.98 r I41 – Palomar Mountain--ZTF MPS 969849
2019 02 08.318681 09 07 30.17 +05 49 36.3 20.06 r I41 – Palomar Mountain--ZTF MPS 969849
2019 02 08.321830 09 07 29.84 +05 49 34.7 20.21 r I41 – Palomar Mountain--ZTF MPS 969849
2019 02 08.325010 09 07 29.51 +05 49 32.8 20.07 r I41 – Palomar Mountain--ZTF MPS 969849
2019 02 08.331440 09 07 28.83 +05 49 29.4 19.96 r I41 – Palomar Mountain--ZTF MPS 969849
2019 02 08.334640 09 07 28.46 +05 49 27.7 20.06 r I41 – Palomar Mountain--ZTF MPS 969849
2019 02 08.337860 09 07 28.14 +05 49 25.8 20.13 r I41 – Palomar Mountain--ZTF MPS 969849
